EW2611 Weather Reports


time (UTC)temp
C
wind
direction
speed
KPH
gust
KPH
rain 1hr
cm
rain 24hr
cm
rain mn
cm
humidity
%
barometer
mb
20260504081544 7 360 0.0 0.0 0.00 0.00 0.00 89 1016.8
20260504050014 10 360 0.0 0.0 0.00 0.00 0.00 84 1018.0
20260504044517 9 360 0.0 0.0 0.00 0.00 0.00 86 1018.1
20260504043013 9 360 0.0 0.0 0.00 0.00 0.00 87 1018.1
20260504041512 9 360 0.0 0.0 0.00 0.00 0.00 87 1018.2
20260504040012 9 360 0.0 0.0 0.00 0.00 0.00 86 1018.4
20260504034512 9 360 0.0 0.0 0.00 0.00 0.00 86 1018.6
20260504033013 9 360 0.0 0.0 0.00 0.00 0.00 85 1018.7
20260504031513 9 360 0.0 0.0 0.00 0.00 0.00 85 1018.8
20260504030010 9 360 0.0 0.0 0.00 0.00 0.00 83 1018.9
20260504024510 10 360 0.0 0.0 0.00 0.00 0.00 83 1018.8
20260504023010 10 360 0.0 0.0 0.00 0.00 0.00 83 1018.5
20260504021511 10 360 0.0 0.0 0.00 0.00 0.00 81 1018.3
20260504020010 11 360 0.0 0.0 0.00 0.00 0.00 80 1018.2
20260504014508 11 360 0.0 0.0 0.00 0.00 0.00 78 1018.0
20260504013008 12 360 0.0 0.0 0.00 0.00 0.00 76 1017.9
20260504011508 12 360 0.0 0.0 0.00 0.00 0.00 74 1017.8
20260504010007 12 360 0.0 0.0 0.00 0.00 0.00 71 1017.8
20260504004520 13 360 0.0 0.0 0.00 0.00 0.00 68 1017.7
20260504003006 14 360 0.0 0.0 0.00 0.00 0.00 65 1017.7
20260504001516 15 360 0.0 0.0 0.00 0.00 0.00 62 1017.7
20260504000004 16 360 0.0 0.0 0.00 0.00 0.00 57 1017.6
20260503234504 16 360 0.0 0.0 0.00 0.00 0.00 54 1017.7
20260503233004 16 360 0.0 0.0 0.00 0.00 0.00 53 1017.7
20260503231503 17 360 0.0 0.0 0.00 0.00 0.00 50 1017.8
20260503230002 17 360 0.0 0.0 0.00 0.00 0.00 51 1017.8
20260503224611 17 360 0.0 0.0 0.00 0.00 0.00 51 1017.8
20260503223112 18 360 0.0 0.0 0.00 0.00 0.00 48 1017.8
20260503221558 18 360 0.0 0.0 0.00 0.00 0.00 50 1018.1
20260503220056 18 360 0.0 0.0 0.00 0.00 0.00 49 1018.2
20260503214558 18 360 0.0 0.0 0.00 0.00 0.00 49 1018.3
20260503213053 18 360 0.0 0.0 0.00 0.00 0.00 48 1018.4
20260503211552 19 360 0.0 0.0 0.00 0.00 0.00 48 1018.6
20260503210049 18 360 0.0 0.0 0.00 0.00 0.00 48 1018.8
20260503204548 18 360 0.0 0.0 0.00 0.00 0.00 47 1019.0
20260503203049 18 360 0.0 0.0 0.00 0.00 0.00 47 1019.1
20260503201550 18 360 0.0 0.0 0.00 0.00 0.00 50 1019.3
20260503200046 18 360 0.0 0.0 0.00 0.00 0.00 50 1019.5
20260503194556 18 360 0.0 0.0 0.00 0.00 0.00 53 1019.9
20260503191539 18 360 0.0 0.0 0.00 0.00 0.00 50 1020.4
20260503190045 18 360 0.0 0.0 0.00 0.00 0.00 52 1020.8
20260503184534 17 360 0.0 0.0 0.00 0.00 0.00 53 1021.0
20260503183038 17 360 0.0 0.0 0.00 0.00 0.00 52 1021.0
20260503181552 17 360 0.0 0.0 0.00 0.00 0.00 55 1021.2
20260503180041 17 360 0.0 0.0 0.00 0.00 0.00 54 1021.3
20260503174528 17 360 0.0 0.0 0.00 0.00 0.00 53 1021.5
20260503173027 17 360 0.0 0.0 0.00 0.00 0.00 53 1021.6
20260503171526 16 360 0.0 0.0 0.00 0.00 0.00 55 1021.8